Simultaneous Nadir Overpasses (SNOs) Predictions

Prediction of SNOs near equator between AQUA and NPP Satellite Orbit:

Table of predicted SNOs near equator for the next 14.0 days since TLE Epoch: 2/2/2013
Index Date (AQUA) Time (AQUA) AQUA Lat,Lon Date (NPP) Time (NPP) NPP Lat,Lon Distance(km) Time Diff (sec)
1 02/03/2013 17:15:25 6.15, -55.86 02/03/2013 17:05:26 6.01, -56.46 67.57 599
2 02/03/2013 18:03:33 -1.67, 112.75 02/03/2013 17:54:49 -1.46, 111.90 97.90 524
3 02/06/2013 09:31:22 4.32, 60.42 02/06/2013 09:21:53 4.17, 59.72 79.61 569
4 02/09/2013 01:05:24 -30.00, 2.78 02/09/2013 00:55:24 -30.08, 1.90 85.18 600
5 02/09/2013 01:47:18 2.48, 176.71 02/09/2013 01:38:20 2.33, 175.89 92.11 538
6 02/11/2013 17:14:57 -5.22, 124.40 02/11/2013 17:05:14 -5.07, 123.75 74.39 583
7 02/14/2013 09:30:49
